Погода в Якшуре

Россия / Удмуртская Республика     56°53′02″N   53°26′15″E
темп.,
°C
ветер,
м/с
пор.,
м/с
влажн.,
%
обл.,
%
осадки,
мм/ч
давл.,
гПа
погр.,
м
25 января, пн
пн2501:00+1юз3699100 0.1 1024203
04:00+1юз3999100 0.3 1024265
07:00+1юз51098100 0.1 1024364
10:00+1юз51198100 0.1 1026417
13:000юз61197100 0.2 1026549
16:00−1юз61295100 1.0 1027584
19:00−2юз41095100 0.2 1028626
22:00−2ююз4994100 0.3 1028471
26 января, вт
вт2601:00−2юз4992100 0.0 1028583
04:00−4ююз4893100 0.1 1028556
07:00−7ююз3895100 0.0 1028242
10:00−5ююз41095100 0.1 1027439
13:00−2ююз5994100 0.2 1027552
16:00−2ююз4993100 0.3 1026672
19:00−2ююз4995100 0.1 1026606
22:00−3ююз4994100 0.2 1026467
27 января, ср
ср2701:00−4ююз4995100 0.1 1026492
04:00−4ююз4895100 0.1 1026472
07:00−5ю51094100 0.1 1026455
10:00−5ююз51193100 0.3 1025527
13:00−5ююз61093100 0.1 1025557
16:00−5ю51193100 0.3 1024560
19:00−5ююз61293100 0.1 1023541
22:00−6ююз61392100 0.2 1022586
28 января, чт
чт2801:00−6ююз61391100 0.0 1021529
04:00−6ююз61491100 0.0 1020540
07:00−6ююз61294100 0.2 1020518
10:00−5юз61292100 1.3 1020508
13:00−4юз51193100 0.6 1020467
16:00−4ююз4890100 0.8 1020431
19:00−6ююз3894100 0.0 1021281
22:00−8ю2696100 0.0 1020166
29 января, пт
пт2901:00−9ююв2596100 0.0 1020131
04:00−8ююв3694100 0.0 1020171
07:00−10юв3594100 0.0 1019117
10:00−9юв3793100 0.0 1018220
13:00−7юв3690100 0.0 1016257
16:00−7вюв4792100 0.0 1014282
19:00−7вюв3890100 0.0 1012236
22:00−6вюв3690100 0.0 1009142